This is the latest recevied weather packets stored in our database for station/object N3FAA. If no packets are shown the sender has not sent any weather packets the latest 10 day(s).
| Time | Temp. | Humidity | Pressure | Rain* | Wind** | Luminosity | Snow |
|---|---|---|---|---|---|---|---|
| 1777811685 | 10.56° C | 62% | 1008.3 hPa | 0 mm | - | 0 W/m² | - |
| 1777811380 | 10.56° C | 63% | 1008.4 hPa | 0 mm | - | 0 W/m² | - |
| 1777811077 | 10.56° C | 63% | 1008.4 hPa | 0 mm | - | 0 W/m² | - |
| 1777810775 | 11.11° C | 61% | 1008.6 hPa | 0 mm | - | 0 W/m² | - |
| 1777810472 | 11.67° C | 61% | 1008.6 hPa | 0 mm | - | 0 W/m² | - |
| 1777810167 | 11.67° C | 61% | 1008.7 hPa | 0 mm | - | 0 W/m² | - |
| 1777809865 | 11.67° C | 60% | 1008.7 hPa | 0 mm | - | 0 W/m² | - |
| 1777809562 | 11.67° C | 60% | 1008.6 hPa | 0 mm | - | 0 W/m² | - |
| 1777809260 | 11.67° C | 58% | 1008.8 hPa | 0 mm | - | 0 W/m² | - |
| 1777808958 | 12.22° C | 59% | 1008.6 hPa | 0 mm | - | 0 W/m² | - |
| 1777808654 | 12.78° C | 58% | 1008.6 hPa | 0 mm | - | 0 W/m² | - |
| 1777808350 | 13.33° C | 54% | 1008.8 hPa | 0 mm | - | 0 W/m² | - |
| 1777808044 | 13.33° C | 50% | 1008.8 hPa | 0 mm | - | 0 W/m² | - |
| 1777807741 | 13.33° C | 49% | 1008.8 hPa | 0 mm | - | 0 W/m² | - |
| 1777807439 | 13.89° C | 48% | 1008.8 hPa | 0 mm | - | 0 W/m² | - |
| 1777807134 | 14.44° C | 49% | 1008.7 hPa | 0 mm | - | 0 W/m² | - |
| 1777806832 | 14.44° C | 51% | 1008.6 hPa | 0 mm | - | 0 W/m² | - |
| 1777806527 | 14.44° C | 49% | 1008.8 hPa | 0 mm | - | 0 W/m² | - |
| 1777806224 | 14.44° C | 48% | 1008.8 hPa | 0 mm | - | 0 W/m² | - |
| 1777805920 | 14.44° C | 47% | 1008.7 hPa | 0 mm | - | 0 W/m² | - |
| 1777805618 | 14.44° C | 46% | 1008.9 hPa | 0 mm | - | 0 W/m² | - |
| 1777805316 | 14.44° C | 45% | 1008.7 hPa | 0 mm | - | 0 W/m² | - |
| 1777805013 | 14.44° C | 45% | 1008.7 hPa | 0 mm | - | 0 W/m² | - |
| 1777804710 | 15° C | 44% | 1008.7 hPa | 0 mm | - | 0 W/m² | - |
| 1777804408 | 15° C | 45% | 1008.8 hPa | 0 mm | - | 0 W/m² | - |
* Rain latest hour (hover to see other rain measurements)
** Current wind speed in m/s (hover to see current wind gust speed)